Volver al catálogo

PEGASUS DEB

ActivoPO
NORAD 24529·DEBRIS·🇺🇸 United States

Lanzado May 19, 1994 desde Vandenberg Space Force Base

Loading…

Próximos Pases (próximas 24 horas)

TLE

ActualizadoSource: Space-Track

Época: Sep 13, 2026, 20:44 UTC

1 24529U 94029WD  26256.86393416  .00001037  00000-0  94876-4 0  9996
2 24529  81.9752  30.4614 0105462 356.1912 129.6443 14.89808478265480

Sigue PEGASUS DEB en tiempo real con AllMySat

Download on the App Store